Retour au catalogue

STARLINK-5645

ActifCommunicationsVLEO
NORAD 55429·PAYLOAD·🇺🇸 United States

Lancé Jan 31, 2023 depuis Vandenberg Space Force Base

Loading…

Prochains Passages (prochaines 24 heures)

TLE

FraisSource: CelesTrak SupGP

Époque: Sep 15, 2026, 01:40 UTC

1 55429C 23014AQ  26258.06993056  .00684190  00000+0  55416-1 0  2583
2 55429  70.0003 327.0727 0003174 268.6645 205.4467 14.99300057    14

Suivez STARLINK-5645 en temps réel avec AllMySat

Download on the App Store